Time,TemperatureF,DewpointF,PressureIn,WindDirection,WindDirectionDegrees,WindSpeedMPH,WindSpeedGustMPH,Humidity,HourlyPrecipIn,Conditions,Clouds,dailyrainin,SoftwareType,DateUTC
2013-03-26 00:02:00,36.0,22.0,30.26,NE,45,0.0,1.0,57,0.00,,,0.00,,2013-03-26 05:02:00,
2013-03-26 00:12:00,36.0,22.0,30.26,NE,45,0.0,1.0,57,0.00,,,0.00,,2013-03-26 05:12:00,
2013-03-26 00:22:00,36.0,23.0,30.27,East,90,0.0,0.0,59,0.00,,,0.00,,2013-03-26 05:22:00,
2013-03-26 00:32:00,37.0,20.0,30.27,NE,36,0.0,4.0,50,0.00,,,0.00,,2013-03-26 05:32:00,
2013-03-26 00:42:00,37.0,20.0,30.27,NE,36,0.0,4.0,50,0.00,,,0.00,,2013-03-26 05:42:00,
2013-03-26 00:52:00,37.0,23.0,30.27,NNE,33,0.0,0.0,56,0.00,,,0.00,,2013-03-26 05:52:00,
2013-03-26 01:02:00,36.0,21.0,30.28,North,1,0.0,0.0,54,0.00,,,0.00,,2013-03-26 06:02:00,
2013-03-26 01:12:00,36.0,21.0,30.28,North,1,0.0,0.0,54,0.00,,,0.00,,2013-03-26 06:12:00,
2013-03-26 01:22:00,35.0,20.0,30.28,North,0,0.0,0.0,55,0.00,,,0.00,,2013-03-26 06:22:00,
2013-03-26 01:32:00,34.0,19.0,30.28,North,0,0.0,0.0,54,0.00,,,0.00,,2013-03-26 06:32:00,
2013-03-26 01:42:00,34.0,19.0,30.28,North,0,0.0,0.0,54,0.00,,,0.00,,2013-03-26 06:42:00,
2013-03-26 01:52:00,34.0,22.0,30.29,North,356,0.0,3.0,60,0.00,,,0.00,,2013-03-26 06:52:00,
2013-03-26 02:02:00,36.0,19.0,30.29,NW,308,0.0,3.0,50,0.00,,,0.00,,2013-03-26 07:02:00,
2013-03-26 02:12:00,36.0,19.0,30.29,NW,308,0.0,3.0,50,0.00,,,0.00,,2013-03-26 07:12:00,
2013-03-26 02:22:00,37.0,18.0,30.29,East,86,0.0,3.0,46,0.00,,,0.00,,2013-03-26 07:22:00,
2013-03-26 02:32:00,38.0,18.0,30.29,East,89,0.0,4.0,44,0.00,,,0.00,,2013-03-26 07:32:00,
2013-03-26 02:42:00,38.0,18.0,30.29,East,89,0.0,4.0,44,0.00,,,0.00,,2013-03-26 07:42:00,
2013-03-26 02:52:00,38.0,17.0,30.31,ENE,71,0.0,4.0,42,0.00,,,0.00,,2013-03-26 07:52:00,
2013-03-26 03:02:00,38.0,18.0,30.30,ENE,57,0.0,4.0,43,0.00,,,0.00,,2013-03-26 08:02:00,
2013-03-26 03:12:00,38.0,18.0,30.30,ENE,57,0.0,4.0,43,0.00,,,0.00,,2013-03-26 08:12:00,
2013-03-26 03:22:00,37.0,17.0,30.31,NE,34,0.0,1.0,43,0.00,,,0.00,,2013-03-26 08:22:00,
2013-03-26 03:32:00,36.0,17.0,30.32,NNW,338,0.0,2.0,45,0.00,,,0.00,,2013-03-26 08:32:00,
2013-03-26 03:42:00,36.0,17.0,30.32,NNW,338,0.0,2.0,45,0.00,,,0.00,,2013-03-26 08:42:00,
2013-03-26 03:52:00,36.0,18.0,30.31,ENE,70,0.0,2.0,47,0.00,,,0.00,,2013-03-26 08:52:00,
2013-03-26 04:02:00,35.0,17.0,30.32,North,349,0.0,1.0,48,0.00,,,0.00,,2013-03-26 09:02:00,
2013-03-26 04:12:00,35.0,17.0,30.32,North,349,0.0,1.0,48,0.00,,,0.00,,2013-03-26 09:12:00,
2013-03-26 04:22:00,35.0,17.0,30.32,East,90,0.0,1.0,48,0.00,,,0.00,,2013-03-26 09:22:00,
2013-03-26 04:33:00,34.0,20.0,30.32,East,89,0.0,2.0,55,0.00,,,0.00,,2013-03-26 09:33:00,
2013-03-26 04:42:00,34.0,20.0,30.32,East,89,0.0,2.0,55,0.00,,,0.00,,2013-03-26 09:42:00,
2013-03-26 04:52:00,34.0,20.0,30.33,ENE,72,0.0,2.0,56,0.00,,,0.00,,2013-03-26 09:52:00,
2013-03-26 05:02:00,34.0,19.0,30.33,NNE,15,0.0,2.0,54,0.00,,,0.00,,2013-03-26 10:02:00,
2013-03-26 05:12:00,34.0,19.0,30.33,NNE,15,0.0,2.0,54,0.00,,,0.00,,2013-03-26 10:12:00,
2013-03-26 05:22:00,34.0,19.0,30.33,ENE,68,0.0,4.0,53,0.00,,,0.00,,2013-03-26 10:22:00,
2013-03-26 05:32:00,33.0,19.0,30.34,East,87,0.0,0.0,55,0.00,,,0.00,,2013-03-26 10:32:00,
2013-03-26 05:42:00,33.0,19.0,30.34,East,87,0.0,0.0,55,0.00,,,0.00,,2013-03-26 10:42:00,
2013-03-26 05:53:00,31.0,18.0,30.34,NE,45,0.0,0.0,57,0.00,,,0.00,,2013-03-26 10:53:00,
2013-03-26 06:03:00,30.0,17.0,30.34,North,0,0.0,0.0,57,0.00,,,0.00,,2013-03-26 11:03:00,
2013-03-26 06:12:00,30.0,17.0,30.34,North,0,0.0,0.0,57,0.00,,,0.00,,2013-03-26 11:12:00,
2013-03-26 06:22:00,30.0,18.0,30.34,NE,45,0.0,0.0,61,0.00,,,0.00,,2013-03-26 11:22:00,
2013-03-26 06:32:00,29.0,21.0,30.35,NE,45,0.0,0.0,71,0.00,,,0.00,,2013-03-26 11:32:00,
2013-03-26 06:42:00,29.0,21.0,30.35,NE,45,0.0,0.0,71,0.00,,,0.00,,2013-03-26 11:42:00,
2013-03-26 06:52:00,28.0,20.0,30.35,North,0,0.0,0.0,71,0.00,,,0.00,,2013-03-26 11:52:00,
2013-03-26 07:02:00,28.0,20.0,30.35,North,0,0.0,0.0,71,0.00,,,0.00,,2013-03-26 12:02:00,
2013-03-26 07:12:00,28.0,20.0,30.35,NE,45,0.0,0.0,72,0.00,,,0.00,,2013-03-26 12:12:00,
2013-03-26 07:22:00,28.0,21.0,30.36,North,1,0.0,0.0,75,0.00,,,0.00,,2013-03-26 12:22:00,
2013-03-26 07:32:00,27.0,21.0,30.36,NE,45,0.0,0.0,79,0.00,,,0.00,,2013-03-26 12:32:00,
2013-03-26 07:42:00,27.0,21.0,30.36,NE,45,0.0,0.0,79,0.00,,,0.00,,2013-03-26 12:42:00,
2013-03-26 07:52:00,27.0,20.0,30.37,North,1,0.0,0.0,76,0.00,,,0.00,,2013-03-26 12:52:00,
2013-03-26 08:03:00,27.0,19.0,30.37,North,0,0.0,0.0,72,0.00,,,0.00,,2013-03-26 13:03:00,
2013-03-26 08:12:00,27.0,19.0,30.37,North,0,0.0,0.0,72,0.00,,,0.00,,2013-03-26 13:12:00,
2013-03-26 08:22:00,29.0,23.0,30.37,NE,46,0.0,0.0,79,0.00,,,0.00,,2013-03-26 13:22:00,
2013-03-26 08:32:00,32.0,22.0,30.38,East,88,0.0,2.0,65,0.00,,,0.00,,2013-03-26 13:32:00,
2013-03-26 08:42:00,32.0,22.0,30.38,East,88,0.0,2.0,65,0.00,,,0.00,,2013-03-26 13:42:00,
2013-03-26 08:52:00,36.0,20.0,30.39,NNW,339,0.0,6.0,51,0.00,,,0.00,,2013-03-26 13:52:00,
2013-03-26 09:02:00,38.0,19.0,30.40,WNW,288,1.0,5.0,46,0.00,,,0.00,,2013-03-26 14:02:00,
2013-03-26 09:11:00,38.0,19.0,30.40,WNW,288,1.0,5.0,46,0.00,,,0.00,,2013-03-26 14:11:00,
2013-03-26 09:22:00,42.0,14.0,30.40,SSW,205,0.0,5.0,31,0.00,,,0.00,,2013-03-26 14:22:00,
2013-03-26 09:32:00,44.0,15.0,30.40,SW,233,0.0,6.0,31,0.00,,,0.00,,2013-03-26 14:32:00,
2013-03-26 09:42:00,44.0,15.0,30.40,SW,233,0.0,6.0,31,0.00,,,0.00,,2013-03-26 14:42:00,
2013-03-26 09:52:00,45.0,16.0,30.40,WNW,303,1.0,10.0,31,0.00,,,0.00,,2013-03-26 14:52:00,
2013-03-26 10:02:00,44.0,15.0,30.40,NW,322,0.0,11.0,31,0.00,,,0.00,,2013-03-26 15:02:00,
2013-03-26 10:12:00,44.0,15.0,30.40,NW,322,0.0,11.0,31,0.00,,,0.00,,2013-03-26 15:12:00,
2013-03-26 10:22:00,46.0,17.0,30.40,WSW,240,1.0,6.0,31,0.00,,,0.00,,2013-03-26 15:22:00,
2013-03-26 10:33:00,48.0,19.0,30.41,West,280,2.0,8.0,31,0.00,,,0.00,,2013-03-26 15:33:00,
2013-03-26 10:42:00,48.0,19.0,30.41,West,280,2.0,8.0,31,0.00,,,0.00,,2013-03-26 15:42:00,
2013-03-26 10:53:00,48.0,19.0,30.40,West,271,2.0,6.0,31,0.00,,,0.00,,2013-03-26 15:53:00,
2013-03-26 11:02:00,48.0,19.0,30.40,West,272,3.0,7.0,31,0.00,,,0.00,,2013-03-26 16:02:00,
2013-03-26 11:12:00,48.0,19.0,30.40,West,272,3.0,7.0,31,0.00,,,0.00,,2013-03-26 16:12:00,
2013-03-26 11:22:00,49.0,20.0,30.40,NW,319,0.0,7.0,31,0.00,,,0.00,,2013-03-26 16:22:00,
2013-03-26 11:32:00,49.0,20.0,30.40,WNW,285,0.0,7.0,31,0.00,,,0.00,,2013-03-26 16:32:00,
2013-03-26 11:42:00,49.0,20.0,30.40,WNW,285,0.0,7.0,31,0.00,,,0.00,,2013-03-26 16:42:00,
2013-03-26 11:53:00,51.0,21.0,30.39,WNW,297,1.0,7.0,31,0.00,,,0.00,,2013-03-26 16:53:00,
2013-03-26 12:02:00,52.0,22.0,30.39,West,281,1.0,6.0,31,0.00,,,0.00,,2013-03-26 17:02:00,
2013-03-26 12:12:00,52.0,22.0,30.39,West,281,1.0,6.0,31,0.00,,,0.00,,2013-03-26 17:12:00,
2013-03-26 12:23:00,52.0,22.0,30.38,West,261,0.0,7.0,31,0.00,,,0.00,,2013-03-26 17:23:00,
2013-03-26 12:32:00,51.0,21.0,30.38,WNW,286,3.0,7.0,31,0.00,,,0.00,,2013-03-26 17:32:00,
2013-03-26 12:42:00,51.0,21.0,30.38,WNW,286,3.0,7.0,31,0.00,,,0.00,,2013-03-26 17:42:00,
2013-03-26 12:53:00,52.0,22.0,30.37,NW,319,3.0,9.0,31,0.00,,,0.00,,2013-03-26 17:53:00,
2013-03-26 13:02:00,52.0,22.0,30.36,WSW,257,2.0,13.0,31,0.00,,,0.00,,2013-03-26 18:02:00,
2013-03-26 13:12:00,52.0,22.0,30.36,WSW,257,2.0,13.0,31,0.00,,,0.00,,2013-03-26 18:12:00,
2013-03-26 13:23:00,55.0,25.0,30.36,WNW,288,1.0,8.0,31,0.00,,,0.00,,2013-03-26 18:23:00,
2013-03-26 13:33:00,54.0,24.0,30.35,NW,306,1.0,7.0,31,0.00,,,0.00,,2013-03-26 18:33:00,
2013-03-26 13:42:00,54.0,24.0,30.35,NW,306,1.0,7.0,31,0.00,,,0.00,,2013-03-26 18:42:00,
2013-03-26 13:53:00,55.0,25.0,30.34,ESE,121,1.0,7.0,31,0.00,,,0.00,,2013-03-26 18:53:00,
2013-03-26 14:02:00,57.0,27.0,30.34,West,279,2.0,9.0,31,0.00,,,0.00,,2013-03-26 19:02:00,
2013-03-26 14:12:00,57.0,27.0,30.34,West,279,2.0,9.0,31,0.00,,,0.00,,2013-03-26 19:12:00,
2013-03-26 14:22:00,56.0,26.0,30.33,WSW,251,3.0,9.0,31,0.00,,,0.00,,2013-03-26 19:22:00,
2013-03-26 14:32:00,55.0,25.0,30.32,WSW,255,2.0,8.0,31,0.00,,,0.00,,2013-03-26 19:32:00,
2013-03-26 14:42:00,55.0,25.0,30.32,WSW,255,2.0,8.0,31,0.00,,,0.00,,2013-03-26 19:42:00,
2013-03-26 14:53:00,57.0,27.0,30.32,SSW,213,0.0,9.0,31,0.00,,,0.00,,2013-03-26 19:53:00,
2013-03-26 15:02:00,57.0,27.0,30.31,ENE,61,1.0,6.0,31,0.00,,,0.00,,2013-03-26 20:02:00,
2013-03-26 15:12:00,57.0,27.0,30.31,ENE,61,1.0,6.0,31,0.00,,,0.00,,2013-03-26 20:12:00,
2013-03-26 15:22:00,57.0,27.0,30.31,NW,320,0.0,9.0,31,0.00,,,0.00,,2013-03-26 20:22:00,
2013-03-26 15:32:00,57.0,27.0,30.30,West,268,3.0,7.0,31,0.00,,,0.00,,2013-03-26 20:32:00,
2013-03-26 15:42:00,57.0,27.0,30.30,West,268,3.0,7.0,31,0.00,,,0.00,,2013-03-26 20:42:00,
2013-03-26 15:52:00,56.0,26.0,30.29,North,357,2.0,11.0,31,0.00,,,0.00,,2013-03-26 20:52:00,
2013-03-26 16:02:00,56.0,26.0,30.28,West,260,1.0,7.0,31,0.00,,,0.00,,2013-03-26 21:02:00,
2013-03-26 16:12:00,56.0,26.0,30.28,West,260,1.0,7.0,31,0.00,,,0.00,,2013-03-26 21:12:00,
2013-03-26 16:22:00,56.0,26.0,30.28,WNW,288,2.0,12.0,31,0.00,,,0.00,,2013-03-26 21:22:00,
2013-03-26 16:32:00,56.0,26.0,30.28,WNW,288,2.0,12.0,31,0.00,,,0.00,,2013-03-26 21:32:00,
2013-03-26 16:42:00,56.0,26.0,30.28,WNW,288,2.0,12.0,31,0.00,,,0.00,,2013-03-26 21:42:00,
2013-03-26 16:52:00,56.0,26.0,30.28,WNW,288,2.0,12.0,31,0.00,,,0.00,,2013-03-26 21:52:00,
2013-03-26 17:22:00,57.0,27.0,30.28,NE,43,1.0,6.0,31,0.00,,,0.00,,2013-03-26 22:22:00,
2013-03-26 17:33:00,57.0,27.0,30.28,NE,43,1.0,6.0,31,0.00,,,0.00,,2013-03-26 22:33:00,
2013-03-26 17:42:00,57.0,27.0,30.28,NE,43,1.0,6.0,31,0.00,,,0.00,,2013-03-26 22:42:00,
2013-03-26 18:22:00,55.0,25.0,30.28,NW,308,0.0,7.0,31,0.00,,,0.00,,2013-03-26 23:22:00,
2013-03-26 18:32:00,55.0,25.0,30.28,NW,319,1.0,9.0,31,0.00,,,0.00,,2013-03-26 23:32:00,
2013-03-26 18:43:00,55.0,25.0,30.28,NW,319,1.0,9.0,31,0.00,,,0.00,,2013-03-26 23:43:00,
2013-03-26 18:52:00,53.0,23.0,30.28,WNW,297,0.0,6.0,31,0.00,,,0.00,,2013-03-26 23:52:00,
2013-03-26 19:02:00,53.0,23.0,30.28,North,351,0.0,4.0,31,0.00,,,0.00,,2013-03-27 00:02:00,
2013-03-26 19:12:00,53.0,23.0,30.28,North,351,0.0,4.0,31,0.00,,,0.00,,2013-03-27 00:12:00,
2013-03-26 19:22:00,49.0,20.0,30.29,NE,42,0.0,4.0,31,0.00,,,0.00,,2013-03-27 00:22:00,
2013-03-26 19:32:00,48.0,19.0,30.30,NNW,333,0.0,3.0,31,0.00,,,0.00,,2013-03-27 00:32:00,
2013-03-26 19:42:00,48.0,19.0,30.30,NNW,333,0.0,3.0,31,0.00,,,0.00,,2013-03-27 00:42:00,
2013-03-26 19:52:00,45.0,16.0,30.31,NE,40,0.0,0.0,31,0.00,,,0.00,,2013-03-27 00:52:00,
2013-03-26 20:02:00,43.0,15.0,30.32,NE,36,0.0,1.0,32,0.00,,,0.00,,2013-03-27 01:02:00,
2013-03-26 20:12:00,43.0,15.0,30.32,NE,36,0.0,1.0,32,0.00,,,0.00,,2013-03-27 01:12:00,
2013-03-26 20:22:00,41.0,13.0,30.32,North,0,0.0,0.0,31,0.00,,,0.00,,2013-03-27 01:22:00,
2013-03-26 20:32:00,40.0,13.0,30.32,North,0,0.0,0.0,33,0.00,,,0.00,,2013-03-27 01:32:00,
2013-03-26 20:42:00,40.0,13.0,30.32,North,0,0.0,0.0,33,0.00,,,0.00,,2013-03-27 01:42:00,
2013-03-26 20:53:00,39.0,17.0,30.33,North,0,0.0,0.0,40,0.00,,,0.00,,2013-03-27 01:53:00,
2013-03-26 21:02:00,38.0,15.0,30.33,North,0,0.0,0.0,39,0.00,,,0.00,,2013-03-27 02:02:00,
2013-03-26 21:12:00,38.0,15.0,30.33,North,0,0.0,0.0,39,0.00,,,0.00,,2013-03-27 02:12:00,
2013-03-26 21:22:00,37.0,17.0,30.34,North,0,0.0,0.0,43,0.00,,,0.00,,2013-03-27 02:22:00,
2013-03-26 21:32:00,37.0,21.0,30.34,North,0,0.0,0.0,51,0.00,,,0.00,,2013-03-27 02:32:00,
2013-03-26 21:42:00,37.0,21.0,30.34,North,0,0.0,0.0,51,0.00,,,0.00,,2013-03-27 02:42:00,
2013-03-26 21:53:00,35.0,19.0,30.35,North,0,0.0,0.0,51,0.00,,,0.00,,2013-03-27 02:53:00,
2013-03-26 22:02:00,35.0,17.0,30.36,North,0,0.0,0.0,48,0.00,,,0.00,,2013-03-27 03:02:00,
2013-03-26 22:12:00,35.0,17.0,30.36,North,0,0.0,0.0,48,0.00,,,0.00,,2013-03-27 03:12:00,
2013-03-26 22:22:00,34.0,20.0,30.36,North,0,0.0,0.0,56,0.00,,,0.00,,2013-03-27 03:22:00,
2013-03-26 22:33:00,34.0,18.0,30.36,North,0,0.0,0.0,51,0.00,,,0.00,,2013-03-27 03:33:00,
2013-03-26 22:42:00,34.0,18.0,30.36,North,0,0.0,0.0,51,0.00,,,0.00,,2013-03-27 03:42:00,
2013-03-26 22:53:00,34.0,21.0,30.37,East,90,0.0,0.0,58,0.00,,,0.00,,2013-03-27 03:53:00,
2013-03-26 23:02:00,33.0,18.0,30.37,North,0,0.0,0.0,54,0.00,,,0.00,,2013-03-27 04:02:00,
2013-03-26 23:13:00,33.0,18.0,30.37,North,0,0.0,0.0,54,0.00,,,0.00,,2013-03-27 04:13:00,
2013-03-26 23:23:00,33.0,19.0,30.37,North,0,0.0,0.0,57,0.00,,,0.00,,2013-03-27 04:23:00,
2013-03-26 23:33:00,34.0,18.0,30.36,North,0,0.0,0.0,51,0.00,,,0.00,,2013-03-27 04:33:00,
2013-03-26 23:42:00,34.0,18.0,30.36,North,0,0.0,0.0,51,0.00,,,0.00,,2013-03-27 04:42:00,
2013-03-26 23:52:00,34.0,17.0,30.37,North,0,0.0,0.0,49,0.00,,,0.00,,2013-03-27 04:52:00,